Hourly Weather Golancz

Today, 13 May, Thursday

Time Temperature Precipitation Wind Pressure Humidity
00:00 +9°C° 0 mm 3 mps 742 mmHg 84%
01:00 +9°C° 0 mm 3 mps 742 mmHg 86%
02:00 +9°C° 0 mm 2 mps 741 mmHg 86%
03:00 +8°C° 0 mm 2 mps 741 mmHg 86%
04:00 +9°C° 0 mm 1 mps 740 mmHg 86%
05:00 +10°C° 0 mm 2 mps 740 mmHg 80%
06:00 +13°C° 0 mm 2 mps 739 mmHg 75%
07:00 +13°C° 0 mm 3 mps 739 mmHg 70%
08:00 +14°C° 0.2 mm 2 mps 739 mmHg 75%
09:00 +13°C° 0.2 mm 2 mps 738 mmHg 80%
10:00 +12°C° 0.2 mm 2 mps 738 mmHg 86%
11:00 +13°C° 0.1 mm 2 mps 737 mmHg 83%
12:00 +14°C° 0.1 mm 2 mps 737 mmHg 80%
13:00 +14°C° 0.1 mm 2 mps 736 mmHg 78%
14:00 +14°C° 0.3 mm 2 mps 736 mmHg 80%
15:00 +13°C° 0.3 mm 3 mps 736 mmHg 83%
16:00 +12°C° 0.3 mm 4 mps 735 mmHg 86%
17:00 +11°C° 0.1 mm 3 mps 735 mmHg 88%
18:00 +10°C° 0.1 mm 3 mps 735 mmHg 90%
19:00 +9°C° 0.1 mm 2 mps 735 mmHg 93%
20:00 +9°C° 0.1 mm 2 mps 735 mmHg 93%
21:00 +9°C° 0.1 mm 2 mps 735 mmHg 94%
22:00 +9°C° 0.1 mm 2 mps 735 mmHg 94%
23:00 +9°C° 0.2 mm 2 mps 734 mmHg 95%

Tomorrow, 14 May, Friday

Time Temperature Precipitation Wind Pressure Humidity
00:00 +9°C° 0.2 mm 2 mps 734 mmHg 95%
01:00 +9°C° 0.2 mm 2 mps 734 mmHg 95%
02:00 +9°C° 0.2 mm 2 mps 734 mmHg 96%
03:00 +9°C° 0.2 mm 2 mps 734 mmHg 96%
04:00 +10°C° 0.2 mm 1 mps 734 mmHg 96%
05:00 +9°C° 0.1 mm 2 mps 734 mmHg 95%
06:00 +10°C° 0.1 mm 2 mps 734 mmHg 94%
07:00 +10°C° 0.1 mm 2 mps 734 mmHg 93%
08:00 +12°C° 0.1 mm 2 mps 735 mmHg 89%
09:00 +12°C° 0.1 mm 3 mps 735 mmHg 85%
10:00 +13°C° 0.1 mm 3 mps 735 mmHg 82%
11:00 +14°C° 0.2 mm 3 mps 735 mmHg 77%
12:00 +16°C° 0.2 mm 3 mps 735 mmHg 72%
13:00 +16°C° 0.2 mm 3 mps 735 mmHg 67%
14:00 +15°C° 0 mm 4 mps 736 mmHg 67%
15:00 +15°C° 0 mm 4 mps 736 mmHg 68%
16:00 +15°C° 0 mm 4 mps 736 mmHg 68%
17:00 +13°C° 0 mm 3 mps 736 mmHg 74%
18:00 +11°C° 0 mm 3 mps 737 mmHg 81%
19:00 +10°C° 0 mm 2 mps 737 mmHg 87%
20:00 +9°C° 0 mm 2 mps 737 mmHg 89%
21:00 +8°C° 0 mm 2 mps 737 mmHg 91%
22:00 +8°C° 0 mm 1 mps 738 mmHg 93%
23:00 +8°C° 0 mm 1 mps 738 mmHg 94%

Day after tomorrow, 15 May, Saturday

Time Temperature Precipitation Wind Pressure Humidity
00:00 +7°C° 0 mm 1 mps 738 mmHg 95%
01:00 +7°C° 0 mm 1 mps 738 mmHg 95%
02:00 +7°C° 0 mm 1 mps 739 mmHg 96%
03:00 +6°C° 0 mm 2 mps 739 mmHg 96%
04:00 +5°C° 0 mm 2 mps 739 mmHg 96%
05:00 +7°C° 0 mm 2 mps 739 mmHg 90%
06:00 +9°C° 0 mm 2 mps 739 mmHg 84%
07:00 +10°C° 0 mm 2 mps 740 mmHg 79%
08:00 +13°C° 0 mm 2 mps 740 mmHg 75%
09:00 +14°C° 0 mm 2 mps 740 mmHg 71%
10:00 +16°C° 0 mm 2 mps 740 mmHg 67%
11:00 +16°C° 0.1 mm 2 mps 740 mmHg 69%
12:00 +16°C° 0.1 mm 2 mps 740 mmHg 71%
13:00 +16°C° 0.1 mm 2 mps 740 mmHg 72%
14:00 +16°C° 0.2 mm 2 mps 740 mmHg 74%
15:00 +16°C° 0.2 mm 2 mps 740 mmHg 76%
16:00 +16°C° 0.2 mm 2 mps 740 mmHg 78%
17:00 +15°C° 0.2 mm 1 mps 740 mmHg 82%
18:00 +14°C° 0.2 mm 1 mps 740 mmHg 86%
19:00 +13°C° 0.2 mm 1 mps 741 mmHg 91%
20:00 +12°C° 0 mm 1 mps 741 mmHg 91%
21:00 +10°C° 0 mm 0 mps 741 mmHg 92%
22:00 +9°C° 0 mm 0 mps 741 mmHg 93%
23:00 +9°C° 0 mm 0 mps 741 mmHg 93%

16 May, Sunday

Time Temperature Precipitation Wind Pressure Humidity
00:00 +10°C° 0 mm 1 mps 741 mmHg 93%
01:00 +10°C° 0 mm 1 mps 741 mmHg 93%
02:00 +10°C° 0 mm 1 mps 741 mmHg 93%
03:00 +9°C° 0 mm 1 mps 741 mmHg 93%
04:00 +9°C° 0 mm 1 mps 741 mmHg 94%
05:00 +10°C° 0 mm 2 mps 741 mmHg 90%
06:00 +13°C° 0 mm 2 mps 741 mmHg 87%
07:00 +13°C° 0 mm 3 mps 741 mmHg 84%
08:00 +14°C° 0 mm 3 mps 741 mmHg 77%
09:00 +17°C° 0 mm 3 mps 741 mmHg 71%
10:00 +18°C° 0 mm 4 mps 741 mmHg 64%
11:00 +19°C° 0 mm 4 mps 741 mmHg 61%
12:00 +19°C° 0 mm 4 mps 740 mmHg 58%
13:00 +20°C° 0 mm 4 mps 740 mmHg 55%
14:00 +20°C° 0.1 mm 4 mps 740 mmHg 58%
15:00 +20°C° 0.1 mm 4 mps 739 mmHg 61%
16:00 +20°C° 0.1 mm 4 mps 739 mmHg 64%
17:00 +18°C° 0.2 mm 4 mps 739 mmHg 70%
18:00 +16°C° 0.2 mm 5 mps 739 mmHg 77%
19:00 +14°C° 0.2 mm 5 mps 738 mmHg 84%
20:00 +14°C° 0.1 mm 5 mps 738 mmHg 85%
21:00 +13°C° 0.1 mm 5 mps 738 mmHg 86%
22:00 +11°C° 0.1 mm 6 mps 738 mmHg 87%
23:00 +12°C° 0 mm 5 mps 738 mmHg 89%

17 May, Monday

Time Temperature Precipitation Wind Pressure Humidity
00:00 +12°C° 0 mm 5 mps 738 mmHg 91%
01:00 +12°C° 0 mm 4 mps 738 mmHg 93%
02:00 +11°C° 0 mm 4 mps 738 mmHg 94%
03:00 +11°C° 0 mm 3 mps 738 mmHg 96%
04:00 +11°C° 0 mm 3 mps 737 mmHg 97%
05:00 +12°C° 0.1 mm 3 mps 737 mmHg 96%
06:00 +13°C° 0.1 mm 2 mps 737 mmHg 95%
07:00 +14°C° 0.1 mm 2 mps 737 mmHg 95%
08:00 +14°C° 0.7 mm 2 mps 737 mmHg 95%
09:00 +14°C° 0.7 mm 2 mps 737 mmHg 95%
10:00 +14°C° 0.7 mm 2 mps 737 mmHg 96%
11:00 +12°C° 0.7 mm 3 mps 737 mmHg 96%
12:00 +11°C° 0.7 mm 3 mps 737 mmHg 97%
13:00 +11°C° 0.7 mm 3 mps 737 mmHg 97%
14:00 +11°C° 0.5 mm 3 mps 737 mmHg 96%
15:00 +11°C° 0.5 mm 3 mps 737 mmHg 95%
16:00 +11°C° 0.5 mm 3 mps 737 mmHg 94%
17:00 +12°C° 0 mm 2 mps 737 mmHg 94%
18:00 +12°C° 0 mm 2 mps 737 mmHg 94%
19:00 +10°C° 0 mm 2 mps 737 mmHg 94%
20:00 +10°C° 0 mm 2 mps 737 mmHg 94%
21:00 +10°C° 0 mm 1 mps 737 mmHg 95%
22:00 +9°C° 0 mm 1 mps 737 mmHg 95%
23:00 +8°C° 0 mm 2 mps 737 mmHg 95%

18 May, Tuesday

Time Temperature Precipitation Wind Pressure Humidity
00:00 +8°C° 0 mm 2 mps 738 mmHg 95%
01:00 +8°C° 0 mm 2 mps 738 mmHg 95%
02:00 +8°C° 0 mm 2 mps 738 mmHg 95%
03:00 +8°C° 0 mm 2 mps 738 mmHg 95%
04:00 +8°C° 0 mm 2 mps 738 mmHg 95%
05:00 +9°C° 0 mm 2 mps 738 mmHg 91%
06:00 +12°C° 0 mm 2 mps 738 mmHg 87%
07:00 +14°C° 0 mm 2 mps 739 mmHg 83%
08:00 +15°C° 0 mm 2 mps 739 mmHg 77%
09:00 +17°C° 0 mm 2 mps 739 mmHg 71%
10:00 +18°C° 0 mm 2 mps 739 mmHg 64%
11:00 +18°C° 0.2 mm 2 mps 739 mmHg 63%
12:00 +19°C° 0.2 mm 2 mps 739 mmHg 62%
13:00 +19°C° 0.2 mm 2 mps 739 mmHg 61%
14:00 +19°C° 0.3 mm 2 mps 739 mmHg 65%
15:00 +18°C° 0.3 mm 2 mps 738 mmHg 70%
16:00 +18°C° 0.3 mm 2 mps 738 mmHg 74%
17:00 +17°C° 0.6 mm 2 mps 738 mmHg 78%
18:00 +14°C° 0.6 mm 3 mps 737 mmHg 82%
19:00 +13°C° 0.6 mm 3 mps 737 mmHg 86%
20:00 +13°C° 1.3 mm 3 mps 737 mmHg 89%
21:00 +12°C° 1.3 mm 3 mps 737 mmHg 92%
22:00 +11°C° 1.3 mm 4 mps 736 mmHg 95%
23:00 +10°C° 4.4 mm 5 mps 735 mmHg 96%
Show more